GW0368 Weather Reports


Display with metric or nautical units.
time (UTC)temp
F
wind
direction
speed
MPH
gust
MPH
rain 1hr
in
rain 24hr
in
rain mn
in
humidity
%
barometer
mb
20260510194515 82 202 3.0 7.0 0.00 0.00 0.00 52 1014.8
20260510193042 83 360 2.0 5.0 0.00 0.00 0.00 53 1015.0
20260510191541 82 273 2.0 6.0 0.00 0.00 0.00 56 1015.1
20260510190025 82 47 2.0 8.0 0.00 0.00 0.00 60 1015.4
20260510184526 82 319 1.0 6.0 0.00 0.00 0.00 58 1015.7
20260510183032 82 175 2.0 6.0 0.00 0.00 0.00 59 1015.7
20260510181523 82 84 1.0 6.0 0.00 0.00 0.00 65 1015.9
20260510174535 81 204 1.0 8.0 0.00 0.00 0.00 65 1016.0
20260510173045 80 209 2.0 6.0 0.00 0.00 0.00 68 1016.0
20260510171556 80 84 2.0 4.0 0.00 0.00 0.00 70 1016.1
20260510170049 79 73 1.0 4.0 0.00 0.00 0.00 69 1016.1
20260510164604 79 273 2.0 6.0 0.00 0.00 0.00 68 1016.2
20260510163111 78 333 1.0 5.0 0.00 0.00 0.00 71 1016.3
20260510161541 77 56 2.0 6.0 0.00 0.00 0.00 74 1016.5
20260510160035 77 298 1.0 5.0 0.00 0.00 0.00 75 1016.5
20260510154543 76 165 2.0 8.0 0.00 0.00 0.00 75 1016.9
20260510153058 76 323 1.0 5.0 0.00 0.00 0.00 75 1016.7
20260510151550 75 329 1.0 5.0 0.00 0.00 0.00 77 1016.7
20260510144517 75 217 1.0 6.0 0.00 0.00 0.00 79 1016.7
20260510143056 74 30 1.0 5.0 0.00 0.00 0.00 81 1016.5
20260510141537 73 348 1.0 3.0 0.00 0.00 0.00 83 1016.5
20260510140011 72 211 3.0 5.0 0.00 0.00 0.00 82 1016.7
20260510134521 71 5 1.0 4.0 0.00 0.00 0.00 85 1016.5
20260510133002 70 309 1.0 4.0 0.00 0.00 0.00 85 1016.3
20260510131557 69 285 0.0 4.0 0.00 0.00 0.00 87 1016.2
20260510130020 68 308 2.0 4.0 0.00 0.00 0.00 87 1016.0
20260510124557 67 275 1.0 4.0 0.00 0.00 0.00 89 1016.0
20260510123102 66 207 1.0 4.0 0.00 0.00 0.00 90 1016.0
20260510121558 64 198 1.0 2.0 0.00 0.00 0.00 91 1015.9
20260510120037 63 194 1.0 2.0 0.00 0.00 0.00 91 1015.7
20260510114559 62 173 0.0 2.0 0.00 0.00 0.00 90 1015.5
20260510113012 62 173 0.0 0.0 0.00 0.00 0.00 90 1015.3
20260510111538 62 173 0.0 3.0 0.00 0.00 0.00 91 1015.2
20260510104604 61 172 0.0 0.0 0.00 0.00 0.00 90 1015.0
20260510103104 61 172 0.0 0.0 0.00 0.00 0.00 89 1014.6
20260510101554 62 172 0.0 0.0 0.00 0.00 0.00 90 1014.4
20260510100108 62 172 0.0 1.0 0.00 0.00 0.00 90 1014.3
20260510094514 62 172 0.0 0.0 0.00 0.00 0.00 89 1014.2
20260510093029 62 172 0.0 2.0 0.00 0.00 0.00 90 1014.0
20260510091528 61 171 0.0 2.0 0.00 0.00 0.00 90 1013.8
20260510090134 61 169 0.0 0.0 0.00 0.00 0.00 89 1013.5
20260510084613 61 169 0.0 2.0 0.00 0.00 0.00 89 1013.4
20260510083056 61 169 0.0 0.0 0.00 0.00 0.00 89 1013.4
20260510081553 62 169 0.0 1.0 0.00 0.00 0.00 89 1013.4
20260510080055 61 169 0.0 0.0 0.00 0.00 0.00 89 1013.3
20260510074554 61 169 0.0 1.0 0.00 0.00 0.00 88 1013.2
20260510073002 62 168 0.0 1.0 0.00 0.00 0.00 88 1013.3
20260510071522 61 168 0.0 0.0 0.00 0.00 0.00 88 1013.1
20260510070039 62 168 0.0 0.0 0.00 0.00 0.00 88 1013.4
20260510064537 61 168 0.0 0.0 0.00 0.00 0.00 87 1013.2
20260510063100 61 168 0.0 0.0 0.00 0.00 0.00 87 1013.1
20260510061554 62 168 0.0 0.0 0.00 0.00 0.00 87 1013.1
20260510060054 62 168 0.0 0.0 0.00 0.00 0.00 87 1013.2
20260510054554 62 168 0.0 0.0 0.00 0.00 0.00 87 1013.3
20260510051504 62 168 0.0 0.0 0.00 0.00 0.00 87 1013.7
20260510044502 62 168 0.0 0.0 0.00 0.00 0.00 86 1013.8
20260510043112 62 168 0.0 0.0 0.00 0.00 0.00 85 1013.9
20260510041555 63 168 0.0 0.0 0.00 0.00 0.00 85 1013.7
20260510040101 63 168 0.0 0.0 0.00 0.00 0.00 85 1013.7
20260510034549 63 168 0.0 0.0 0.00 0.00 0.00 86 1013.6
20260510033108 63 168 0.0 0.0 0.00 0.00 0.00 85 1013.5
20260510031617 64 168 0.0 0.0 0.00 0.00 0.00 85 1013.4
20260510030105 64 168 0.0 0.0 0.00 0.00 0.00 85 1013.4
20260510024518 64 168 0.0 0.0 0.00 0.00 0.00 84 1013.2
20260510023133 64 168 0.0 0.0 0.00 0.00 0.00 84 1013.2
20260510021534 65 168 0.0 0.0 0.00 0.00 0.00 83 1013.1
20260510020052 65 168 0.0 0.0 0.00 0.00 0.00 83 1013.3
20260510014558 65 168 0.0 0.0 0.00 0.00 0.00 82 1013.0
20260510013056 66 168 0.0 0.0 0.00 0.00 0.00 80 1012.6
20260510011540 67 168 0.0 0.0 0.00 0.00 0.00 80 1012.5
20260510010030 67 168 0.0 0.0 0.00 0.00 0.00 79 1012.5
20260510004509 68 168 0.0 0.0 0.00 0.00 0.00 79 1012.3
20260510003017 69 168 0.0 0.0 0.00 0.00 0.00 78 1012.2
20260510001556 70 168 0.0 0.0 0.00 0.00 0.00 78 1012.3
20260510000109 71 168 0.0 0.0 0.00 0.00 0.00 78 1012.3
20260509234508 71 168 0.0 0.0 0.00 0.00 0.00 78 1012.1
20260509233012 72 168 0.0 3.0 0.00 0.00 0.00 78 1011.6
20260509231522 72 167 0.0 3.0 0.00 0.00 0.00 78 1011.7
20260509230101 72 165 1.0 4.0 0.00 0.00 0.00 77 1011.6
20260509224546 72 161 1.0 5.0 0.00 0.00 0.00 77 1011.4
20260509223054 72 189 0.0 5.0 0.00 0.00 0.00 78 1011.5
20260509221550 72 225 0.0 7.0 0.00 0.00 0.00 77 1011.5
20260509220050 72 231 2.0 5.0 0.00 0.00 0.00 77 1011.7
20260509214541 73 193 0.0 4.0 0.00 0.00 0.00 77 1011.5
20260509213044 72 230 4.0 8.0 0.00 0.00 0.00 77 1011.5
20260509211543 72 140 3.0 8.0 0.00 0.00 0.00 77 1011.5
20260509210046 72 275 2.0 4.0 0.00 0.00 0.00 76 1011.5
20260509204548 72 223 2.0 8.0 0.00 0.00 0.00 76 1011.4
20260509203019 72 59 3.0 8.0 0.00 0.00 0.00 76 1011.3
20260509201540 71 217 4.0 9.0 0.00 0.00 0.00 76 1011.6
20260509200049 71 200 1.0 7.0 0.00 0.00 0.00 75 1011.8